Temp
64 63 63 62 63 63 65 65 65 64 63 63 62 62 59 58 54 52 52 55 56 64 68 64 68 72 73 71 72 72 72 71 69 70 67 67 66 66 65 63 64 67 67 68 70 71 72 73 72 72 72 73 73 73 72 72 72 72 72 71 70 68 66 66 67 67 68 69 69 69 69 68 68 68
63 62 62 62 61 63 63 62 62 62 62 62 62 61 61 60 55 54 52 53 58 58 62 66 66 69 69 71 71 71 71 68 69 70 69 68 68 65 63 61 60 63 62 62 63 66 69 71 72 73 73 73 73 73 73 72 71 71 70 68 65 63 62 63 65 66 68 68 69 69 69 68 68 68
64 63 61 61 60 62 62 62 62 62 62 62 62 61 62 61 59 56 55 51 57 60 58 61 67 67 69 70 69 70 70 69 69 69 68 70 67 63 65 64 62 60 60 59 60 61 64 67 69 70 70 70 70 71 72 71 70 68 65 63 62 61 61 63 65 66 67 67 68 68 68 68 68 68
63 61 60 62 61 61 61 61 62 61 61 61 61 61 61 59 59 59 56 54 54 58 59 61 63 66 64 67 67 67 69 71 66 69 68 69 65 67 68 65 64 63 60 59 59 61 63 64 66 67 67 67 68 68 69 68 65 63 62 62 61 60 59 61 63 64 65 66 67 68 68 68 68 68
63 62 62 62 62 62 60 60 61 61 62 62 61 60 59 59 59 58 56 54 55 58 61 61 62 64 64 64 65 65 65 65 67 66 67 67 65 66 67 68 64 63 62 61 59 57 57 57 58 60 63 64 64 64 63 60 59 62 63 61 59 58 57 58 60 62 63 64 65 66 67 67 67 68
63 62 61 62 61 62 61 59 61 61 60 61 59 60 60 59 60 59 58 56 54 54 57 58 63 62 65 62 65 62 61 62 63 65 65 68 67 68 66 66 69 64 61 58 57 54 54 54 54 55 57 56 54 53 54 54 54 55 57 57 56 55 55 55 57 59 61 63 64 64 65 65 65 65
62 61 60 59 60 61 58 58 58 58 58 59 59 59 60 58 58 60 59 56 53 53 54 58 58 59 60 59 61 64 64 64 65 64 65 65 66 67 66 66 68 63 60 59 58 58 56 55 54 53 53 53 53 54 54 54 54 53 53 54 54 54 54 54 54 57 59 60 61 62 62 62 63 63
61 60 59 59 60 59 58 58 58 58 58 58 58 59 59 58 59 58 57 57 54 53 51 54 56 58 57 59 62 64 64 63 63 64 64 65 65 66 67 67 68 65 59 59 59 58 58 58 55 54 53 52 52 53 53 53 53 53 53 53 53 53 53 53 53 54 56 57 57 57 59 58 60 62
60 59 58 59 59 59 58 58 57 58 58 59 58 57 57 58 57 57 56 55 55 52 51 52 56 58 59 60 60 62 61 61 62 63 62 64 64 64 65 66 66 62 60 60 60 59 59 58 58 56 54 53 53 53 52 52 52 53 53 53 53 53 53 53 53 53 53 53 53 53 53 54 54 57
60 59 58 59 59 59 57 57 57 57 56 57 56 56 56 56 56 55 55 55 54 53 53 54 53 56 56 57 58 61 60 57 57 58 61 61 61 60 60 62 65 66 66 65 65 61 60 60 59 58 56 54 53 52 52 53 53 53 53 53 53 53 52 52 52 52 52 52 52 52 52 52 52 54
59 59 59 58 59 57 55 54 53 52 52 52 53 54 54 55 54 53 54 54 54 53 53 54 54 54 56 56 54 58 61 61 60 57 55 54 58 58 57 57 60 62 63 62 60 60 60 59 60 57 56 57 56 55 54 54 54 55 54 53 53 53 53 52 52 51 51 51 51 51 51 51 51 52
59 59 59 59 58 54 54 52 52 52 50 51 51 52 53 53 52 52 53 53 53 52 52 51 51 53 53 53 55 58 59 56 55 56 54 51 52 54 55 56 55 58 59 59 62 61 61 61 61 58 59 58 58 58 59 60 60 58 56 54 53 53 52 52 52 51 51 51 51 51 50 50 49 49
59 59 59 60 59 55 54 54 53 53 53 51 49 50 51 51 51 50 50 50 51 51 50 50 52 52 52 53 53 52 52 51 51 54 54 52 53 54 53 54 56 57 56 57 57 57 58 58 58 60 60 62 60 62 60 61 62 60 55 53 53 53 52 52 52 51 51 51 51 51 51 50 49 48
58 58 58 59 61 59 57 55 52 50 51 52 52 50 50 49 49 49 49 49 50 49 49 49 50 49 50 51 52 51 52 54 54 53 52 50 51 52 52 52 54 57 56 53 52 54 57 56 56 57 58 61 61 61 62 63 63 59 56 55 53 52 51 51 50 50 50 51 51 50 50 49 49 48
57 57 58 57 58 57 57 56 52 50 48 48 48 50 51 52 49 48 48 49 50 49 49 49 49 49 48 50 52 51 52 53 52 51 51 50 50 49 47 45 50 55 54 52 50 51 55 56 53 56 57 59 60 61 62 58 55 53 52 52 54 53 52 51 50 50 50 50 50 49 49 48 48 47
58 57 57 56 56 55 56 56 54 51 49 47 46 46 46 46 47 48 48 48 47 48 48 48 49 49 48 50 51 51 51 50 50 51 50 49 48 47 46 46 45 52 54 51 49 50 55 56 54 54 57 59 60 63 54 48 48 48 49 49 49 51 51 50 49 49 49 48 48 48 47 47 47 46
57 56 55 54 55 55 57 56 55 55 54 49 47 47 47 47 45 42 42 44 48 49 48 48 49 50 50 49 51 52 50 50 48 49 48 48 48 48 46 47 47 50 54 51 49 49 53 54 54 54 58 60 62 58 49 50 48 48 48 47 47 47 48 48 48 48 48 47 47 47 46 46 46 46
55 55 54 53 54 54 55 55 55 55 54 53 51 49 49 49 51 48 44 43 44 46 47 47 47 50 52 49 49 51 50 48 47 47 47 48 47 47 47 49 49 51 55 52 50 48 53 57 56 56 59 61 63 52 49 47 49 48 48 48 47 47 47 47 47 47 46 47 47 46 46 46 46 45
55 55 54 54 54 54 54 51 52 53 52 50 50 50 51 54 54 52 48 47 48 47 48 48 48 50 52 52 51 50 50 50 49 49 48 48 48 49 51 51 52 52 55 55 53 48 53 58 56 56 58 60 62 54 50 47 48 48 47 47 46 46 46 46 46 46 46 46 46 47 46 45 44 44
56 56 55 54 54 54 50 45 43 46 49 49 49 49 51 53 54 55 57 50 49 53 51 51 51 51 52 50 51 51 51 50 50 50 50 49 48 47 47 48 50 49 53 56 53 49 51 56 54 55 58 60 60 55 53 48 49 49 48 47 47 46 46 46 46 46 46 45 46 46 45 44 44 44
57 56 57 56 54 53 47 42 39 40 45 47 49 50 51 52 53 54 53 46 47 47 46 45 45 46 46 45 45 45 45 47 48 46 45 45 47 46 46 47 47 47 51 54 53 50 49 52 52 53 56 57 56 55 53 51 48 48 48 48 47 47 46 46 46 46 45 45 45 45 45 44 44 45
57 58 59 59 55 52 45 40 39 38 45 47 48 49 49 50 50 51 51 54 51 45 43 44 44 44 45 44 44 44 44 44 45 45 43 47 49 47 46 44 46 48 50 51 52 49 48 50 52 50 54 56 56 55 55 55 54 52 50 49 48 48 47 47 46 46 45 45 46 46 47 47 47 48
56 56 58 58 57 52 44 38 38 38 46 47 47 47 47 47 49 47 47 47 46 47 48 49 50 49 50 51 48 48 46 44 46 47 48 49 48 46 46 47 47 45 48 52 53 47 47 48 50 49 49 49 54 54 54 53 54 54 54 53 52 49 49 47 47 46 46 45 45 45 45 46 49 50
55 57 56 55 45 42 39 38 38 38 40 45 46 46 45 46 46 45 45 47 46 46 48 48 50 51 53 54 51 50 50 50 49 47 49 49 49 48 48 48 47 44 46 51 52 47 47 48 47 51 49 46 47 52 52 51 51 51 52 53 52 50 50 49 48 47 46 45 45 45 45 44 47 50
56 56 55 54 44 39 38 38 38 38 38 40 43 43 45 46 42 42 43 46 49 46 47 49 50 50 52 54 54 53 52 51 49 49 49 51 52 51 49 47 46 45 48 51 48 48 45 47 46 49 49 50 50 51 50 50 50 49 50 50 50 51 51 51 50 50 48 47 45 45 45 45 44 45
57 57 53 48 42 39 39 38 38 38 38 36 41 44 42 39 39 42 44 44 45 47 48 50 51 52 52 54 53 53 53 52 53 54 54 54 53 51 50 48 45 44 45 51 46 48 46 46 48 47 48 48 49 51 49 47 49 48 48 48 48 49 50 49 49 49 49 48 47 45 44 44 44 44
55 51 48 46 41 39 38 38 38 38 37 38 40 40 40 40 38 40 43 45 45 46 48 50 51 50 52 52 51 51 51 52 52 53 53 52 51 50 51 50 50 48 48 49 50 49 47 46 49 47 46 48 47 50 48 46 46 48 46 46 47 47 48 48 47 46 47 46 46 46 45 44 44 44
50 48 46 43 38 38 38 38 37 37 38 41 41 39 38 38 39 41 43 44 46 46 47 48 49 51 52 52 51 51 52 52 52 52 51 51 52 51 50 49 49 49 48 48 48 48 48 48 49 50 49 48 47 47 45 46 46 45 44 46 46 46 45 45 44 44 44 44 43 43 43 41 42 43
45 42 40 38 38 38 37 37 37 37 37 37 38 38 38 41 42 43 45 45 46 47 48 49 50 50 51 52 53 54 53 53 52 51 51 52 52 51 50 49 48 48 47 46 46 47 47 47 46 47 49 48 47 45 45 43 44 44 44 43 41 43 44 45 43 42 41 41 40 40 39 40 40 41
37 38 38 38 38 37 38 39 40 42 44 40 39 39 40 41 43 45 46 48 48 47 47 48 49 49 51 51 53 53 53 52 49 49 49 50 50 50 49 47 47 46 46 45 45 45 45 44 44 46 48 46 46 45 44 43 41 42 43 43 43 43 44 44 42 42 40 39 38 38 38 38 38 40
45 40 40 41 40 42 41 41 43 43 44 43 43 42 43 43 44 46 47 47 48 47 47 48 49 50 50 53 52 51 53 51 49 50 48 48 48 49 49 47 45 45 45 45 44 43 43 42 42 43 43 44 45 44 44 44 41 41 41 41 42 38 41 43 43 41 40 39 39 39 38 38 37 38
48 49 44 43 45 45 43 43 43 43 44 45 45 46 47 47 48 49 53 52 48 47 49 49 50 49 51 49 50 51 51 51 49 50 47 48 47 48 49 46 44 45 44 44 44 44 43 42 41 41 40 39 40 44 44 42 40 40 39 40 40 40 41 40 40 40 41 39 37 36 37 37 36 36
50 49 47 45 45 45 44 44 45 45 46 46 48 48 49 50 49 49 49 48 47 48 49 48 48 48 49 49 49 50 50 52 50 50 48 49 49 49 48 45 44 43 43 43 43 43 43 43 43 41 40 40 40 41 42 40 40 40 39 39 39 38 39 39 40 39 41 39 36 35 34 35 36 36
48 49 48 48 47 46 46 46 46 47 48 48 49 49 48 49 49 49 49 49 50 48 47 47 48 48 49 48 49 49 49 50 49 49 47 49 50 46 45 44 43 44 43 44 44 44 44 44 43 43 42 41 40 39 38 39 39 40 40 40 39 37 38 39 39 39 38 37 36 34 33 33 34 35
46 48 47 48 49 49 49 49 49 50 50 49 50 50 50 49 47 45 48 48 46 46 47 47 48 48 48 47 49 48 48 50 49 50 48 49 48 45 45 43 44 43 44 44 44 46 45 44 44 43 43 43 41 40 40 37 36 39 40 40 40 39 38 39 39 39 39 37 36 33 32 32 32 34
44 47 46 47 48 50 50 49 49 49 50 50 49 49 50 49 48 48 47 46 47 47 47 47 46 48 48 49 48 48 47 46 49 49 47 48 46 45 45 45 44 44 44 43 43 44 45 45 45 43 39 38 37 34 35 39 38 35 39 39 40 39 40 40 40 40 39 37 37 35 31 30 31 33
42 41 42 41 47 49 49 43 43 46 49 50 50 49 48 47 47 47 46 46 46 45 46 47 46 46 48 46 46 43 46 46 48 49 48 48 47 47 46 42 43 44 42 42 44 44 45 44 45 42 39 36 34 32 32 37 39 39 36 39 40 41 40 40 40 40 41 41 39 37 35 34 32 34
41 40 39 40 42 43 44 45 45 44 45 45 46 46 47 45 43 46 46 46 46 44 46 46 46 45 48 46 47 47 47 49 49 48 48 49 48 48 47 46 45 44 43 44 44 44 44 43 43 42 40 36 34 33 32 34 34 36 38 37 38 40 43 41 37 37 39 41 39 39 39 35 35 35
43 42 40 43 42 44 43 45 44 42 42 45 44 44 42 44 44 41 42 44 45 47 47 48 48 45 46 48 47 45 44 44 42 45 47 47 47 47 48 48 46 45 44 42 44 44 43 42 42 41 40 37 34 34 33 32 31 34 38 39 38 38 37 41 39 41 40 36 35 36 36 36 37 37
45 46 45 46 45 45 45 43 45 44 43 43 44 44 42 45 43 41 42 42 44 46 46 45 45 48 46 47 46 47 46 47 49 46 45 45 44 45 45 45 47 46 45 43 43 43 43 42 42 42 41 40 39 39 37 36 36 36 36 39 38 38 37 39 37 38 37 39 37 33 31 32 28 31
44 45 47 48 48 48 48 47 48 47 46 47 48 47 46 46 46 47 44 45 43 45 41 45 45 46 47 48 46 45 42 42 45 45 45 45 44 43 41 40 42 46 43 42 45 44 44 45 43 39 42 42 42 40 35 34 33 33 33 34 38 39 38 38 37 36 35 39 38 33 31 30 31 30
46 47 49 50 51 51 50 49 49 48 48 47 48 47 47 47 45 41 42 41 45 45 44 43 45 43 43 45 43 43 42 40 41 41 43 44 40 42 42 43 40 42 40 37 43 43 45 45 42 43 43 42 35 33 33 32 31 30 30 31 33 39 40 39 38 38 35 34 35 33 33 34 35 32
49 49 49 50 51 51 51 50 49 48 48 48 48 48 46 45 44 42 42 42 43 40 41 41 43 41 42 43 43 42 41 41 41 43 44 44 43 41 39 41 44 45 45 45 45 46 44 44 43 43 43 37 34 36 34 33 32 31 31 31 32 33 35 40 40 39 38 38 38 36 34 34 31 28
51 51 52 52 52 51 51 51 49 48 49 49 47 48 46 44 42 43 42 40 41 40 41 41 41 41 41 42 42 43 42 40 42 41 41 40 41 41 44 42 40 42 41 39 40 40 44 43 42 43 37 36 37 36 35 35 33 32 32 32 32 32 32 34 34 39 39 38 38 39 39 39 39 38
53 53 54 53 51 51 50 51 50 49 47 47 46 46 43 44 42 43 45 43 41 41 41 41 42 39 41 41 40 40 41 43 42 41 42 41 40 41 40 40 38 39 38 39 37 37 37 37 39 40 37 36 35 34 35 35 34 34 33 32 33 32 33 34 32 32 33 32 36 38 38 39 38 38
MSLP
1017.72 1017.70 1017.68 1017.66 1017.56 1017.42 1017.24 1017.22 1017.24 1017.30 1017.40 1017.52 1017.62 1017.64 1017.84 1018.04 1018.38 1018.44 1018.20 1017.74 1017.44 1016.68 1016.34 1016.72 1015.80 1015.36 1015.40 1015.48 1015.32 1015.24 1015.14 1015.08 1015.20 1015.22 1015.26 1015.28 1015.22 1015.12 1015.08 1015.06 1015.00 1014.98 1015.02 1015.04 1015.02 1014.96 1014.92 1014.84 1014.78 1014.74 1014.70 1014.64 1014.60 1014.58 1014.58 1014.54 1014.52 1014.50 1014.48 1014.48 1014.50 1014.54 1014.60 1014.66 1014.70 1014.72 1014.76 1014.80 1014.84 1014.88 1014.92 1014.98 1015.04 1015.08
1017.80 1017.78 1017.76 1017.70 1017.68 1017.50 1017.42 1017.36 1017.32 1017.34 1017.38 1017.56 1017.68 1017.74 1017.72 1017.80 1018.20 1018.22 1018.38 1018.08 1017.52 1017.30 1016.78 1016.58 1016.48 1015.92 1015.90 1015.84 1015.78 1015.68 1015.50 1015.34 1015.26 1015.20 1015.26 1015.26 1015.18 1015.06 1015.04 1015.00 1015.04 1015.00 1014.98 1014.96 1014.92 1014.80 1014.70 1014.58 1014.46 1014.40 1014.36 1014.34 1014.32 1014.30 1014.30 1014.28 1014.30 1014.32 1014.32 1014.32 1014.36 1014.40 1014.44 1014.48 1014.52 1014.54 1014.54 1014.54 1014.54 1014.56 1014.58 1014.62 1014.68 1014.74
1017.76 1017.86 1017.94 1017.88 1017.88 1017.72 1017.64 1017.54 1017.48 1017.48 1017.50 1017.52 1017.52 1017.54 1017.56 1017.58 1017.66 1017.84 1018.00 1018.30 1017.46 1017.30 1017.44 1017.00 1016.64 1016.56 1016.24 1015.98 1015.94 1015.92 1015.84 1015.68 1015.56 1015.42 1015.32 1015.20 1015.08 1015.04 1014.94 1014.86 1014.84 1014.84 1014.76 1014.66 1014.58 1014.52 1014.42 1014.32 1014.18 1014.08 1014.06 1014.04 1014.04 1014.06 1014.02 1014.02 1014.02 1014.06 1014.12 1014.18 1014.20 1014.24 1014.24 1014.26 1014.28 1014.30 1014.30 1014.30 1014.30 1014.28 1014.28 1014.30 1014.32 1014.36
1017.88 1017.96 1017.98 1017.92 1017.94 1017.84 1017.76 1017.66 1017.56 1017.60 1017.58 1017.54 1017.58 1017.58 1017.54 1017.54 1017.52 1017.64 1017.84 1017.96 1017.84 1017.34 1017.30 1017.02 1016.78 1016.56 1016.46 1016.28 1016.30 1016.14 1015.96 1015.76 1015.70 1015.60 1015.50 1015.34 1015.28 1015.18 1015.04 1014.92 1014.84 1014.68 1014.60 1014.50 1014.36 1014.20 1014.06 1013.94 1013.88 1013.82 1013.80 1013.80 1013.80 1013.80 1013.80 1013.82 1013.88 1013.90 1013.92 1013.94 1013.98 1014.00 1014.02 1014.02 1014.04 1014.06 1014.08 1014.06 1014.02 1014.00 1013.98 1013.98 1014.00 1014.02
1017.76 1017.82 1017.90 1017.90 1017.84 1017.82 1017.86 1017.82 1017.74 1017.64 1017.54 1017.46 1017.50 1017.58 1017.62 1017.60 1017.50 1017.58 1017.72 1017.84 1017.62 1017.20 1016.84 1016.82 1016.76 1016.54 1016.48 1016.50 1016.36 1016.34 1016.24 1016.14 1015.96 1015.84 1015.70 1015.56 1015.48 1015.32 1015.08 1014.80 1014.60 1014.46 1014.26 1014.08 1013.98 1013.94 1013.84 1013.78 1013.78 1013.80 1013.76 1013.70 1013.66 1013.66 1013.64 1013.66 1013.70 1013.72 1013.72 1013.76 1013.78 1013.80 1013.80 1013.80 1013.80 1013.80 1013.82 1013.82 1013.80 1013.76 1013.72 1013.68 1013.68 1013.70
1017.68 1017.70 1017.80 1017.80 1017.80 1017.78 1017.88 1017.86 1017.86 1017.76 1017.80 1017.76 1017.68 1017.60 1017.64 1017.62 1017.52 1017.38 1017.58 1017.64 1017.72 1017.62 1017.18 1017.08 1016.92 1016.88 1016.72 1016.86 1016.62 1016.66 1016.56 1016.36 1016.18 1016.04 1015.84 1015.58 1015.38 1015.16 1014.96 1014.78 1014.52 1014.26 1014.14 1014.12 1014.06 1013.94 1013.82 1013.72 1013.60 1013.48 1013.42 1013.40 1013.42 1013.46 1013.50 1013.54 1013.56 1013.58 1013.58 1013.58 1013.58 1013.60 1013.58 1013.58 1013.56 1013.54 1013.54 1013.54 1013.54 1013.54 1013.50 1013.46 1013.42 1013.42
1017.70 1017.80 1017.86 1017.90 1017.90 1017.90 1018.02 1018.06 1018.06 1018.04 1018.04 1018.02 1018.02 1017.92 1017.82 1017.84 1017.84 1017.74 1017.74 1017.88 1017.98 1017.94 1017.70 1017.48 1017.34 1017.26 1017.24 1017.30 1017.04 1016.78 1016.58 1016.42 1016.24 1016.12 1015.92 1015.76 1015.58 1015.38 1015.16 1014.96 1014.66 1014.36 1014.20 1014.14 1014.06 1013.94 1013.86 1013.76 1013.58 1013.38 1013.20 1013.12 1013.10 1013.10 1013.12 1013.14 1013.16 1013.18 1013.18 1013.18 1013.20 1013.22 1013.26 1013.26 1013.26 1013.26 1013.22 1013.22 1013.24 1013.26 1013.24 1013.24 1013.20 1013.16
1017.80 1017.82 1017.88 1017.86 1017.86 1017.90 1018.04 1018.14 1018.20 1018.22 1018.24 1018.24 1018.22 1018.16 1018.02 1018.00 1018.00 1018.00 1018.10 1018.18 1018.38 1018.40 1018.46 1018.00 1017.92 1017.64 1017.74 1017.46 1017.18 1016.86 1016.56 1016.38 1016.20 1016.04 1015.82 1015.64 1015.52 1015.30 1015.04 1014.78 1014.50 1014.36 1014.34 1014.14 1013.94 1013.80 1013.64 1013.48 1013.42 1013.38 1013.30 1013.20 1013.02 1012.90 1012.82 1012.80 1012.84 1012.88 1012.90 1012.92 1012.92 1012.92 1012.94 1012.94 1012.96 1012.96 1012.92 1012.90 1012.90 1012.92 1012.92 1012.94 1012.92 1012.88
1017.86 1017.88 1017.88 1017.82 1017.86 1017.92 1018.08 1018.20 1018.34 1018.34 1018.40 1018.38 1018.38 1018.44 1018.42 1018.42 1018.44 1018.54 1018.62 1018.60 1018.60 1018.66 1018.68 1018.36 1018.00 1017.92 1017.78 1017.50 1017.20 1016.86 1016.60 1016.40 1016.28 1016.08 1015.88 1015.58 1015.38 1015.28 1015.18 1015.04 1014.82 1014.54 1014.30 1014.16 1014.06 1013.92 1013.76 1013.48 1013.26 1013.14 1013.08 1012.96 1012.84 1012.74 1012.68 1012.62 1012.56 1012.50 1012.42 1012.36 1012.34 1012.36 1012.42 1012.46 1012.50 1012.52 1012.54 1012.54 1012.54 1012.56 1012.60 1012.62 1012.64 1012.62
1017.84 1017.90 1018.04 1018.02 1017.98 1018.02 1018.08 1018.18 1018.34 1018.50 1018.60 1018.60 1018.60 1018.64 1018.76 1018.76 1018.74 1018.82 1018.82 1018.78 1018.74 1018.74 1018.60 1018.52 1018.38 1018.04 1017.88 1017.56 1017.26 1016.92 1016.78 1016.70 1016.48 1016.18 1015.88 1015.72 1015.70 1015.74 1015.60 1015.44 1015.12 1014.80 1014.54 1014.36 1014.12 1013.84 1013.62 1013.38 1013.20 1013.06 1012.98 1012.90 1012.80 1012.70 1012.62 1012.54 1012.42 1012.28 1012.18 1012.10 1012.06 1012.06 1012.06 1012.06 1012.08 1012.12 1012.16 1012.16 1012.16 1012.16 1012.20 1012.26 1012.30 1012.30
1017.96 1018.04 1018.12 1018.24 1018.14 1018.36 1018.74 1018.92 1019.10 1019.18 1019.30 1019.36 1019.30 1019.26 1019.18 1019.06 1019.06 1019.08 1019.02 1018.94 1018.90 1018.84 1018.78 1018.58 1018.44 1018.24 1017.86 1017.70 1017.52 1017.00 1016.72 1016.52 1016.40 1016.32 1016.26 1016.36 1016.18 1016.08 1015.96 1015.78 1015.56 1015.26 1014.90 1014.56 1014.26 1014.00 1013.82 1013.62 1013.48 1013.32 1013.12 1012.90 1012.68 1012.56 1012.46 1012.32 1012.18 1012.02 1011.86 1011.76 1011.66 1011.54 1011.48 1011.52 1011.60 1011.66 1011.70 1011.76 1011.82 1011.86 1011.88 1011.90 1011.92 1011.92
1017.94 1018.00 1018.00 1018.08 1018.42 1018.94 1019.00 1019.20 1019.36 1019.38 1019.56 1019.56 1019.58 1019.46 1019.50 1019.56 1019.54 1019.46 1019.28 1019.18 1019.06 1019.00 1018.96 1018.90 1018.74 1018.42 1018.08 1017.68 1017.32 1017.02 1016.94 1017.06 1016.96 1016.90 1017.00 1016.90 1016.58 1016.38 1016.32 1016.28 1016.00 1015.62 1015.34 1014.94 1014.54 1014.30 1014.06 1013.86 1013.66 1013.44 1013.20 1012.98 1012.72 1012.46 1012.22 1011.96 1011.74 1011.54 1011.38 1011.34 1011.30 1011.26 1011.28 1011.30 1011.34 1011.38 1011.42 1011.48 1011.54 1011.58 1011.58 1011.58 1011.58 1011.60
1017.86 1017.88 1017.92 1018.00 1018.30 1018.88 1019.14 1019.22 1019.38 1019.46 1019.56 1019.66 1019.76 1019.70 1019.74 1019.90 1019.94 1019.86 1019.72 1019.58 1019.42 1019.24 1019.14 1019.00 1018.68 1018.50 1018.18 1017.80 1017.70 1017.66 1017.66 1017.70 1017.58 1017.32 1017.26 1017.28 1017.10 1016.88 1016.64 1016.30 1016.14 1015.84 1015.68 1015.40 1015.22 1015.00 1014.80 1014.46 1014.16 1013.86 1013.50 1013.14 1012.86 1012.54 1012.26 1011.90 1011.54 1011.28 1011.28 1011.26 1011.16 1010.98 1010.86 1010.82 1010.84 1010.88 1010.92 1011.00 1011.08 1011.14 1011.18 1011.20 1011.24 1011.26
1018.00 1018.04 1018.06 1018.20 1018.20 1018.54 1018.86 1019.14 1019.40 1019.58 1019.64 1019.62 1019.62 1019.70 1019.80 1019.96 1020.02 1019.92 1019.86 1019.76 1019.60 1019.46 1019.34 1019.14 1018.96 1018.84 1018.56 1018.34 1018.20 1018.14 1017.92 1017.78 1017.66 1017.70 1017.72 1017.80 1017.42 1017.16 1016.82 1016.46 1016.16 1015.96 1015.88 1015.80 1015.60 1015.36 1015.14 1014.94 1014.56 1014.24 1013.80 1013.24 1012.94 1012.62 1012.32 1011.98 1011.62 1011.32 1011.20 1011.14 1011.04 1010.86 1010.70 1010.58 1010.48 1010.44 1010.50 1010.62 1010.66 1010.70 1010.74 1010.78 1010.80 1010.84
1017.96 1018.08 1018.18 1018.30 1018.50 1018.72 1018.92 1019.02 1019.20 1019.38 1019.50 1019.56 1019.58 1019.62 1019.70 1019.80 1019.94 1019.94 1019.74 1019.58 1019.48 1019.48 1019.36 1019.18 1019.16 1019.02 1018.96 1018.72 1018.46 1018.38 1018.20 1018.08 1018.16 1018.18 1018.12 1017.98 1017.70 1017.58 1017.50 1017.14 1016.34 1016.10 1016.14 1016.10 1015.98 1015.52 1015.22 1014.98 1014.62 1014.20 1013.82 1013.30 1012.82 1012.46 1012.08 1011.88 1011.84 1011.66 1011.28 1010.84 1010.58 1010.62 1010.52 1010.36 1010.22 1010.12 1010.02 1010.12 1010.26 1010.32 1010.36 1010.42 1010.50 1010.62
1017.88 1018.10 1018.32 1018.56 1018.78 1018.90 1018.92 1018.94 1019.14 1019.24 1019.30 1019.46 1019.60 1019.70 1019.66 1019.68 1019.78 1019.88 1019.94 1019.84 1019.68 1019.52 1019.50 1019.42 1019.26 1019.22 1019.10 1018.90 1018.72 1018.52 1018.44 1018.46 1018.54 1018.44 1018.38 1018.26 1018.20 1018.16 1018.04 1017.72 1017.30 1016.36 1016.44 1016.42 1016.16 1015.56 1014.96 1014.76 1014.48 1014.06 1013.46 1012.86 1012.50 1012.16 1012.48 1012.40 1012.12 1011.82 1011.50 1011.16 1010.72 1010.36 1010.22 1010.30 1010.42 1010.44 1010.34 1010.22 1010.22 1010.22 1010.20 1010.20 1010.36 1010.66
1017.96 1018.24 1018.62 1018.78 1018.80 1018.80 1018.78 1018.90 1018.90 1018.78 1018.92 1019.20 1019.40 1019.50 1019.36 1019.34 1019.54 1019.66 1019.66 1019.68 1019.64 1019.38 1019.36 1019.22 1019.10 1019.04 1018.98 1018.90 1018.64 1018.50 1018.54 1018.62 1018.78 1018.66 1018.60 1018.46 1018.42 1018.28 1018.16 1017.76 1017.34 1016.72 1016.46 1016.40 1016.10 1015.66 1014.88 1014.54 1014.10 1013.70 1012.98 1012.52 1012.14 1012.48 1012.72 1012.56 1012.30 1011.96 1011.68 1011.32 1011.00 1010.78 1010.56 1010.48 1010.46 1010.44 1010.40 1010.38 1010.36 1010.36 1010.44 1010.60 1010.72 1010.80
1018.18 1018.48 1018.72 1018.78 1018.78 1018.78 1018.80 1018.78 1018.76 1018.74 1018.70 1018.86 1019.22 1019.40 1019.32 1019.12 1018.92 1019.06 1019.26 1019.26 1019.22 1019.40 1019.44 1019.34 1019.18 1018.72 1018.52 1018.42 1018.32 1018.24 1018.30 1018.52 1018.58 1018.56 1018.50 1018.28 1018.20 1018.12 1017.96 1017.58 1017.20 1016.60 1016.26 1016.12 1015.86 1015.62 1014.78 1014.10 1013.86 1013.44 1012.88 1012.46 1012.24 1012.90 1012.86 1012.60 1012.32 1011.96 1011.62 1011.36 1011.20 1011.06 1010.94 1010.80 1010.70 1010.60 1010.54 1010.46 1010.40 1010.36 1010.40 1010.56 1010.72 1010.74
1018.44 1018.66 1018.76 1018.82 1018.78 1018.72 1018.80 1019.00 1018.92 1018.80 1018.86 1019.08 1019.20 1019.12 1018.86 1018.28 1017.90 1018.16 1018.52 1018.74 1018.92 1019.12 1019.20 1019.14 1018.98 1018.76 1018.30 1018.06 1018.00 1018.04 1018.10 1018.12 1018.14 1018.12 1018.10 1018.04 1017.96 1017.72 1017.36 1017.06 1016.60 1016.24 1015.96 1015.70 1015.64 1015.66 1014.76 1014.16 1014.04 1013.62 1013.16 1012.70 1012.44 1012.98 1012.90 1012.80 1012.48 1012.16 1011.90 1011.66 1011.50 1011.38 1011.24 1011.12 1010.96 1010.80 1010.68 1010.58 1010.48 1010.46 1010.50 1010.56 1010.64 1010.72
1018.24 1018.48 1018.58 1018.62 1018.68 1018.64 1019.08 1019.30 1019.26 1019.24 1019.18 1019.22 1019.16 1019.04 1018.62 1018.10 1017.82 1017.66 1017.58 1017.74 1018.12 1018.38 1018.54 1018.58 1018.44 1018.16 1018.00 1017.90 1017.80 1017.82 1017.86 1017.92 1017.96 1017.98 1017.94 1017.86 1017.76 1017.60 1017.40 1016.98 1016.28 1016.22 1015.80 1015.72 1015.72 1015.74 1015.26 1014.50 1014.46 1013.82 1013.22 1012.86 1012.52 1013.00 1013.06 1013.08 1012.76 1012.46 1012.26 1012.06 1011.92 1011.74 1011.58 1011.40 1011.20 1010.96 1010.76 1010.68 1010.64 1010.66 1010.66 1010.70 1010.84 1010.96
1017.90 1018.06 1018.18 1018.24 1018.44 1018.54 1019.16 1019.48 1019.40 1019.30 1019.30 1019.24 1019.06 1018.86 1018.54 1018.26 1018.04 1017.72 1017.66 1017.88 1018.14 1018.14 1018.16 1018.14 1018.04 1017.86 1017.72 1017.62 1017.52 1017.62 1017.78 1017.92 1018.08 1018.26 1018.46 1018.22 1017.76 1017.66 1017.42 1017.02 1016.62 1016.28 1016.06 1015.80 1015.96 1016.04 1015.60 1015.12 1015.00 1014.20 1013.54 1013.18 1012.90 1013.08 1013.18 1013.12 1013.00 1012.82 1012.66 1012.50 1012.30 1012.08 1011.82 1011.58 1011.36 1011.12 1010.92 1010.78 1010.90 1011.06 1011.10 1011.16 1011.18 1011.12
1017.46 1017.52 1017.66 1017.74 1018.02 1018.34 1019.16 1019.42 1019.36 1019.38 1019.26 1019.08 1018.94 1018.78 1018.68 1018.44 1018.18 1018.00 1018.26 1018.12 1018.18 1018.20 1018.16 1018.02 1017.86 1017.58 1017.30 1017.24 1017.20 1017.28 1017.38 1017.62 1018.18 1018.46 1018.50 1017.94 1017.80 1017.78 1017.60 1017.58 1017.04 1016.32 1016.20 1016.04 1016.02 1016.12 1015.92 1015.46 1015.12 1014.86 1014.04 1013.36 1013.04 1013.18 1013.06 1013.04 1013.02 1012.94 1012.90 1012.82 1012.74 1012.54 1012.32 1012.12 1011.94 1011.68 1011.44 1011.36 1011.54 1011.78 1011.90 1011.94 1011.82 1011.52
1017.04 1017.22 1017.24 1017.40 1017.68 1018.22 1018.84 1019.16 1019.22 1019.22 1019.12 1019.02 1019.06 1018.94 1018.92 1018.68 1018.26 1018.58 1018.66 1018.44 1018.38 1018.24 1018.12 1017.84 1017.60 1017.34 1016.86 1016.60 1016.70 1016.76 1016.88 1017.32 1017.96 1018.06 1017.98 1017.92 1017.98 1017.88 1017.70 1017.40 1017.02 1016.86 1016.32 1016.16 1016.22 1016.54 1016.02 1015.80 1015.28 1015.26 1014.68 1014.02 1013.34 1013.44 1013.56 1013.48 1013.36 1013.24 1013.06 1012.98 1012.94 1012.88 1012.72 1012.66 1012.54 1012.40 1012.30 1012.32 1012.34 1012.30 1012.28 1012.26 1012.38 1012.20
1016.70 1016.72 1016.88 1017.16 1017.68 1018.16 1018.68 1019.00 1019.14 1019.18 1019.10 1019.08 1019.12 1019.10 1019.00 1018.78 1018.34 1018.90 1018.82 1018.58 1018.46 1018.38 1018.20 1017.86 1017.48 1017.12 1016.60 1016.26 1016.12 1016.34 1016.58 1017.00 1017.52 1017.72 1017.82 1017.76 1017.68 1017.68 1017.34 1017.08 1017.12 1017.28 1016.88 1016.38 1016.46 1016.74 1016.28 1016.02 1015.76 1015.36 1015.34 1015.20 1014.34 1013.54 1013.90 1013.90 1013.90 1013.70 1013.38 1013.18 1013.16 1013.20 1013.06 1012.94 1012.96 1013.08 1013.14 1013.08 1013.04 1012.88 1012.80 1013.04 1013.08 1013.06
1016.02 1016.34 1016.48 1016.96 1017.64 1018.12 1018.58 1018.84 1018.94 1018.96 1019.08 1019.28 1019.28 1019.22 1019.02 1018.82 1019.08 1019.08 1018.86 1018.62 1018.46 1018.36 1018.04 1017.64 1017.26 1016.90 1016.42 1015.68 1015.62 1015.86 1016.22 1016.68 1017.06 1017.30 1017.28 1017.26 1017.18 1017.14 1017.24 1017.30 1017.32 1017.24 1016.94 1016.60 1016.54 1016.70 1016.56 1016.14 1015.86 1015.42 1015.06 1014.90 1014.52 1014.02 1014.24 1014.30 1014.40 1014.32 1014.12 1013.84 1013.78 1013.72 1013.52 1013.44 1013.42 1013.48 1013.62 1013.72 1013.74 1013.68 1013.66 1013.70 1013.86 1013.70
1015.64 1015.60 1016.32 1017.18 1017.90 1018.16 1018.42 1018.54 1018.68 1018.86 1019.12 1019.30 1019.34 1019.06 1018.90 1018.90 1018.90 1018.98 1018.92 1018.74 1018.48 1018.12 1017.70 1017.26 1016.48 1015.94 1015.76 1015.62 1015.72 1015.80 1015.94 1016.12 1016.24 1016.38 1016.56 1016.72 1016.90 1017.08 1017.22 1017.40 1017.52 1017.44 1017.02 1016.54 1016.52 1016.46 1016.36 1016.02 1015.68 1015.62 1015.22 1014.98 1014.46 1014.12 1014.22 1014.84 1014.80 1014.88 1014.72 1014.50 1014.42 1014.40 1014.18 1014.16 1014.14 1014.24 1014.32 1014.36 1014.38 1014.50 1014.56 1014.46 1014.50 1014.50
1016.02 1016.74 1017.20 1017.58 1017.92 1018.06 1018.28 1018.50 1018.68 1018.86 1019.06 1019.26 1019.16 1018.98 1018.90 1018.86 1018.92 1019.00 1018.88 1018.54 1018.28 1017.90 1017.52 1017.00 1016.30 1016.02 1015.72 1015.72 1015.80 1015.94 1016.06 1016.06 1016.14 1016.40 1016.60 1016.68 1016.84 1016.94 1017.08 1017.22 1017.24 1017.30 1017.04 1016.72 1016.50 1016.36 1016.26 1016.08 1015.68 1015.58 1015.28 1014.92 1014.70 1014.06 1014.24 1014.64 1015.16 1015.08 1015.16 1015.18 1015.06 1015.02 1014.90 1014.84 1014.92 1015.06 1015.08 1015.00 1015.04 1015.02 1014.98 1015.06 1015.18 1015.32
1016.94 1017.20 1017.48 1017.94 1018.18 1018.28 1018.44 1018.60 1018.70 1018.80 1018.92 1018.86 1018.74 1018.78 1018.80 1018.84 1018.88 1018.86 1018.66 1018.38 1017.94 1017.72 1017.38 1016.52 1016.02 1015.82 1015.76 1015.72 1015.80 1015.92 1015.96 1015.96 1016.24 1016.44 1016.56 1016.66 1016.72 1016.90 1017.10 1017.26 1017.24 1017.16 1017.00 1016.82 1016.60 1016.38 1016.16 1015.96 1015.56 1015.26 1015.08 1014.88 1014.62 1014.46 1014.92 1015.32 1015.38 1015.44 1015.78 1015.74 1015.54 1015.60 1015.62 1015.62 1015.80 1015.82 1015.84 1015.78 1015.68 1015.68 1015.58 1015.82 1016.04 1015.94
1017.38 1017.48 1017.66 1017.94 1018.14 1018.32 1018.44 1018.52 1018.68 1018.76 1018.72 1018.64 1018.60 1018.56 1018.54 1018.66 1018.72 1018.44 1018.18 1017.88 1017.68 1017.06 1016.40 1016.14 1015.92 1015.88 1015.80 1015.72 1015.70 1015.70 1015.70 1015.92 1016.14 1016.28 1016.40 1016.54 1016.74 1016.84 1017.00 1017.20 1017.28 1017.22 1017.12 1016.98 1016.76 1016.48 1016.26 1016.06 1015.92 1015.60 1015.14 1015.06 1015.04 1015.38 1015.40 1015.92 1015.92 1016.00 1015.96 1015.96 1016.24 1016.34 1016.30 1016.32 1016.40 1016.54 1016.60 1016.50 1016.58 1016.60 1016.78 1016.84 1016.78 1016.94
1017.76 1017.80 1017.86 1018.02 1018.14 1018.24 1018.32 1018.42 1018.46 1018.30 1018.16 1018.14 1018.20 1018.24 1018.36 1018.56 1018.34 1018.10 1017.78 1017.36 1016.74 1016.56 1016.44 1016.16 1016.08 1015.94 1015.80 1015.72 1015.64 1015.54 1015.50 1015.78 1016.12 1016.20 1016.34 1016.46 1016.76 1016.86 1017.00 1017.22 1017.40 1017.52 1017.40 1017.26 1016.96 1016.74 1016.48 1016.34 1016.16 1015.72 1015.50 1015.68 1015.68 1015.88 1016.12 1016.24 1016.62 1016.62 1016.40 1016.28 1016.52 1016.64 1016.88 1016.98 1017.04 1017.08 1017.10 1017.28 1017.38 1017.44 1017.72 1017.56 1017.52 1017.46
1017.18 1017.62 1017.86 1017.88 1017.88 1017.76 1017.76 1017.84 1017.80 1017.88 1017.88 1017.98 1018.02 1018.12 1018.16 1018.06 1017.92 1017.64 1017.38 1016.78 1016.64 1016.60 1016.48 1016.22 1016.04 1015.98 1015.84 1015.72 1015.60 1015.48 1015.38 1015.78 1016.00 1016.08 1016.32 1016.46 1016.72 1016.80 1016.86 1017.04 1017.40 1017.64 1017.64 1017.44 1017.30 1017.06 1016.82 1016.68 1016.56 1016.32 1016.18 1016.24 1016.24 1016.44 1016.56 1016.60 1016.96 1017.12 1017.18 1017.06 1016.80 1017.26 1017.78 1017.60 1017.54 1017.62 1017.78 1017.82 1017.86 1017.94 1018.02 1018.02 1018.10 1018.26
1016.80 1016.88 1017.16 1017.38 1017.42 1017.36 1017.44 1017.54 1017.72 1017.74 1017.76 1017.72 1017.68 1017.56 1017.44 1017.34 1017.22 1017.02 1016.66 1016.38 1016.46 1016.50 1016.36 1016.14 1016.06 1015.98 1015.84 1015.74 1015.52 1015.36 1015.26 1015.58 1015.84 1016.06 1016.28 1016.34 1016.50 1016.60 1016.70 1017.12 1017.50 1017.46 1017.66 1017.68 1017.60 1017.42 1017.12 1017.10 1017.08 1017.12 1017.24 1017.40 1017.24 1017.02 1016.94 1017.08 1017.42 1017.66 1017.82 1017.82 1017.78 1018.00 1018.06 1018.06 1018.08 1018.20 1018.24 1018.14 1018.06 1018.48 1018.78 1018.84 1018.96 1019.08
1016.32 1016.48 1016.66 1016.94 1016.94 1016.92 1016.98 1017.10 1017.20 1017.22 1017.24 1017.22 1017.08 1016.94 1016.78 1016.66 1016.62 1016.56 1016.30 1016.28 1016.42 1016.38 1016.14 1016.16 1016.08 1015.94 1015.76 1015.62 1015.46 1015.30 1015.22 1015.36 1015.66 1015.88 1016.04 1016.00 1016.26 1016.40 1016.64 1017.20 1017.50 1017.64 1017.56 1017.74 1017.88 1017.78 1017.62 1017.54 1017.56 1017.62 1017.70 1017.80 1017.88 1017.68 1017.32 1017.58 1017.98 1018.08 1018.26 1018.40 1018.36 1018.52 1018.60 1018.56 1018.48 1018.60 1018.60 1018.24 1018.68 1019.06 1019.38 1019.66 1019.74 1019.74
1015.92 1016.02 1016.16 1016.28 1016.34 1016.40 1016.48 1016.56 1016.58 1016.54 1016.52 1016.46 1016.44 1016.30 1016.02 1015.68 1015.68 1015.64 1015.72 1015.80 1015.82 1016.02 1016.16 1016.12 1015.98 1015.80 1015.70 1015.64 1015.40 1015.30 1015.26 1015.32 1015.64 1015.64 1015.78 1015.86 1016.12 1016.48 1016.76 1017.22 1017.60 1017.58 1017.50 1017.40 1017.50 1017.60 1017.64 1017.66 1017.64 1017.80 1017.94 1018.16 1018.30 1018.44 1018.40 1018.16 1018.32 1018.50 1018.54 1018.62 1018.70 1018.84 1018.98 1018.94 1019.00 1018.98 1018.90 1018.88 1018.96 1019.26 1019.72 1020.08 1020.28 1020.28
1015.84 1015.58 1015.64 1015.62 1015.52 1015.48 1015.56 1015.68 1015.66 1015.50 1015.44 1015.46 1015.24 1015.12 1015.40 1015.56 1015.52 1015.62 1015.80 1015.76 1015.88 1016.06 1016.08 1015.94 1015.76 1015.74 1015.72 1015.58 1015.44 1015.42 1015.28 1015.18 1015.42 1015.64 1015.62 1015.78 1016.08 1016.56 1016.88 1017.22 1017.32 1017.36 1017.28 1017.26 1017.26 1017.16 1017.26 1017.46 1017.52 1017.52 1017.70 1017.94 1018.14 1018.70 1018.94 1019.08 1018.94 1018.72 1018.72 1018.82 1018.92 1018.98 1019.16 1019.16 1019.18 1019.18 1019.14 1019.34 1019.20 1019.56 1020.20 1020.48 1020.72 1020.80
1015.52 1015.20 1015.14 1015.12 1014.94 1014.76 1014.74 1014.66 1014.58 1014.44 1014.40 1014.48 1014.70 1014.84 1015.02 1015.16 1015.22 1015.46 1015.62 1015.86 1015.98 1016.02 1015.94 1015.76 1015.72 1015.72 1015.70 1015.56 1015.56 1015.48 1015.36 1015.14 1015.08 1015.08 1015.36 1015.72 1016.08 1016.42 1016.46 1016.52 1016.62 1016.84 1017.04 1017.16 1017.18 1017.10 1017.08 1016.98 1017.10 1017.46 1018.10 1018.44 1018.60 1018.94 1019.38 1019.56 1019.56 1019.54 1018.92 1019.00 1019.04 1019.14 1019.22 1019.24 1019.24 1019.30 1019.38 1019.58 1019.74 1019.84 1020.32 1020.94 1021.22 1021.26
1015.20 1015.16 1015.18 1015.12 1014.82 1014.42 1014.16 1014.10 1014.16 1014.26 1014.36 1014.50 1014.60 1014.70 1014.84 1014.96 1015.08 1015.32 1015.82 1015.94 1016.04 1016.08 1015.92 1015.78 1015.76 1015.64 1015.62 1015.56 1015.54 1015.50 1015.30 1015.06 1015.00 1014.80 1014.84 1015.54 1015.78 1016.02 1016.24 1016.44 1016.48 1016.72 1016.98 1017.08 1017.12 1017.20 1017.16 1017.20 1017.22 1017.72 1018.22 1018.78 1019.10 1019.62 1020.06 1019.78 1019.68 1019.70 1019.74 1019.14 1019.14 1019.20 1019.28 1019.26 1019.22 1019.28 1019.40 1019.54 1019.84 1020.08 1020.48 1020.78 1021.22 1021.40
1014.92 1014.98 1015.04 1014.96 1014.74 1014.42 1014.04 1013.86 1014.00 1014.22 1014.46 1014.62 1014.74 1014.80 1014.86 1014.98 1015.16 1015.44 1015.66 1015.84 1016.00 1015.98 1015.82 1015.76 1015.66 1015.54 1015.52 1015.46 1015.48 1015.38 1015.22 1015.02 1014.88 1014.88 1014.86 1014.98 1015.34 1015.42 1015.62 1016.08 1016.54 1016.88 1017.08 1017.30 1017.32 1017.36 1017.38 1017.46 1017.54 1017.84 1018.10 1018.60 1019.10 1019.42 1019.68 1020.08 1020.20 1020.06 1020.00 1019.70 1019.28 1019.18 1019.02 1019.14 1019.32 1019.44 1019.58 1019.72 1020.00 1020.30 1020.46 1020.76 1021.20 1021.48
1014.78 1014.88 1014.94 1014.84 1014.54 1014.24 1014.00 1013.92 1014.02 1014.26 1014.50 1014.68 1014.80 1014.92 1015.02 1015.10 1015.22 1015.42 1015.62 1015.70 1015.60 1015.56 1015.56 1015.46 1015.32 1015.42 1015.54 1015.46 1015.38 1015.46 1015.36 1015.14 1015.08 1014.88 1014.98 1015.34 1015.52 1015.42 1015.40 1015.96 1016.46 1016.78 1017.04 1017.38 1017.44 1017.56 1017.64 1017.78 1017.98 1018.16 1018.32 1018.74 1019.14 1019.74 1020.06 1020.50 1020.96 1020.70 1020.20 1019.80 1019.54 1019.16 1019.08 1019.02 1019.10 1019.34 1019.80 1020.38 1020.72 1020.84 1021.06 1021.20 1021.40 1021.60
1014.54 1014.54 1014.54 1014.46 1014.22 1013.94 1013.84 1013.88 1014.02 1014.22 1014.48 1014.68 1014.80 1014.88 1015.00 1015.08 1015.16 1015.30 1015.40 1015.44 1015.56 1015.66 1015.62 1015.48 1015.46 1015.50 1015.52 1015.38 1015.34 1015.38 1015.26 1015.22 1015.08 1015.06 1015.34 1015.48 1015.58 1015.58 1015.70 1015.96 1016.26 1016.64 1016.82 1017.22 1017.68 1017.90 1017.98 1018.16 1018.24 1018.34 1018.58 1018.88 1019.30 1019.58 1019.84 1020.12 1020.46 1020.46 1020.24 1020.04 1019.90 1019.72 1019.64 1019.32 1019.12 1019.38 1020.08 1020.40 1020.72 1021.12 1021.66 1021.86 1022.12 1022.06
1014.52 1014.50 1014.28 1014.08 1013.84 1013.62 1013.62 1013.72 1013.90 1014.10 1014.30 1014.52 1014.68 1014.74 1014.78 1014.84 1014.92 1015.00 1015.12 1015.22 1015.38 1015.52 1015.56 1015.40 1015.42 1015.44 1015.34 1015.14 1015.30 1015.48 1015.52 1015.38 1015.26 1015.20 1015.38 1015.52 1015.62 1015.58 1015.50 1015.42 1015.46 1015.88 1016.36 1016.76 1017.14 1017.56 1017.88 1018.04 1018.24 1018.46 1018.58 1018.92 1019.20 1019.46 1019.48 1019.72 1020.48 1020.88 1020.84 1020.82 1020.48 1020.18 1019.92 1019.74 1019.70 1019.62 1019.72 1020.12 1020.52 1021.04 1021.48 1021.62 1021.64 1021.86
1014.10 1014.06 1013.94 1013.76 1013.58 1013.28 1013.28 1013.48 1013.64 1013.86 1014.04 1014.24 1014.46 1014.54 1014.60 1014.66 1014.88 1015.12 1015.18 1015.24 1015.36 1015.46 1015.44 1015.28 1015.16 1015.20 1015.28 1015.28 1015.40 1015.54 1015.64 1015.60 1015.52 1015.46 1015.46 1015.48 1015.58 1015.52 1015.48 1015.54 1015.64 1015.66 1015.92 1016.54 1016.96 1017.14 1017.52 1017.96 1018.34 1018.54 1018.76 1018.96 1019.32 1019.04 1019.44 1020.12 1020.58 1020.88 1021.00 1020.94 1020.82 1020.62 1020.38 1020.24 1020.14 1020.14 1020.16 1019.92 1019.74 1020.30 1020.44 1020.50 1020.40 1020.68
1013.34 1013.38 1013.42 1013.30 1013.18 1012.94 1012.92 1013.14 1013.34 1013.52 1013.72 1013.90 1014.10 1014.26 1014.50 1014.64 1014.96 1014.98 1015.04 1015.26 1015.38 1015.48 1015.44 1015.28 1015.18 1015.24 1015.34 1015.36 1015.38 1015.48 1015.56 1015.64 1015.62 1015.54 1015.56 1015.54 1015.52 1015.56 1015.78 1015.94 1015.74 1015.70 1015.84 1016.14 1016.58 1017.00 1017.64 1018.04 1018.26 1018.34 1018.52 1018.92 1019.12 1018.70 1019.30 1019.78 1020.32 1020.58 1020.82 1020.84 1020.86 1020.78 1020.68 1020.56 1020.42 1020.32 1020.14 1020.10 1020.10 1019.96 1019.70 1019.46 1019.80 1020.92
1012.54 1012.68 1012.72 1012.72 1012.64 1012.58 1012.60 1012.80 1013.04 1013.20 1013.38 1013.60 1013.80 1013.98 1014.26 1014.42 1014.60 1014.74 1014.84 1015.04 1015.22 1015.26 1015.18 1015.16 1015.18 1015.22 1015.34 1015.44 1015.44 1015.46 1015.50 1015.54 1015.58 1015.62 1015.70 1015.80 1015.78 1015.78 1015.94 1016.02 1016.02 1016.06 1016.22 1016.44 1016.76 1017.18 1017.64 1018.04 1018.24 1018.20 1018.30 1018.42 1018.32 1018.56 1019.18 1019.58 1019.92 1020.06 1020.30 1020.54 1020.70 1020.70 1020.76 1020.72 1020.72 1020.58 1020.46 1020.52 1020.60 1020.34 1020.06 1020.06 1020.32 1020.72
1011.98 1012.04 1012.06 1012.06 1012.12 1012.18 1012.34 1012.50 1012.74 1012.94 1013.16 1013.38 1013.58 1013.76 1013.88 1014.02 1014.16 1014.38 1014.52 1014.64 1014.76 1014.88 1015.00 1015.12 1015.14 1015.20 1015.34 1015.42 1015.46 1015.52 1015.48 1015.56 1015.64 1015.70 1015.78 1015.84 1015.90 1016.00 1016.08 1016.18 1016.32 1016.40 1016.60 1016.74 1016.96 1017.36 1017.66 1017.90 1018.00 1018.04 1018.28 1018.44 1018.46 1018.68 1018.84 1019.10 1019.44 1019.74 1020.00 1020.24 1020.48 1020.60 1020.66 1020.78 1020.90 1020.96 1021.02 1021.14 1021.16 1021.06 1021.00 1020.98 1021.10 1021.32
Wind_Speed
3 2 3 3 3 3 3 2 3 4 5 5 5 5 4 3 4 4 4 3 4 4 7 5 5 6 9 9 8 9 8 10 11 6 5 6 5 7 6 6 8 8 7 8 9 11 14 15 15 14 14 15 15 14 13 13 14 14 14 13 12 10 9 9 10 11 12 13 14 15 16 17 18 18
2 3 3 3 4 3 5 5 3 3 3 3 4 4 4 3 4 4 4 4 3 4 4 4 6 8 9 7 7 7 8 11 13 9 7 6 5 10 12 9 8 9 10 10 12 14 16 18 19 20 20 20 20 19 17 14 13 12 11 9 9 8 8 7 8 8 10 12 13 14 15 16 17 17
1 1 2 3 4 4 4 3 3 3 2 4 4 5 5 4 2 3 3 5 3 3 4 4 6 8 9 8 6 6 7 9 11 8 7 7 10 12 8 12 10 12 14 15 16 16 17 17 18 19 19 18 19 20 20 16 13 11 9 8 8 9 9 8 8 9 10 12 12 13 14 15 16 17
3 3 3 2 2 3 3 3 2 2 3 3 5 5 5 4 3 3 4 5 7 3 5 5 4 4 4 6 7 6 5 7 10 6 6 8 10 7 7 11 14 15 13 14 16 18 18 19 18 17 16 14 16 16 16 15 13 11 10 10 9 9 9 9 9 10 11 12 13 13 13 14 15 16
1 1 2 2 2 2 3 3 4 3 2 2 1 3 5 5 3 3 3 5 6 3 2 3 3 3 4 4 5 8 6 6 7 9 7 7 7 7 7 7 11 14 17 17 15 15 16 16 15 14 13 13 14 13 13 13 12 12 11 10 10 10 10 10 10 10 11 12 13 14 14 14 14 15
2 2 3 3 2 2 3 3 3 3 5 5 4 3 3 4 5 3 3 3 4 6 3 4 6 7 7 7 6 7 8 7 5 7 7 6 6 6 6 6 7 13 13 11 7 9 11 12 13 13 13 13 13 12 13 13 12 12 12 12 12 11 11 11 11 11 11 12 12 13 13 13 13 13
2 1 1 3 3 3 4 3 3 3 3 4 5 5 5 5 5 6 5 5 5 6 6 6 7 6 7 7 9 9 7 7 7 8 7 7 7 7 8 8 8 12 14 16 15 12 11 12 13 12 12 12 13 14 14 14 14 14 14 14 14 13 13 13 13 13 11 11 12 12 12 12 13 13
3 2 1 1 1 1 2 3 4 3 3 3 3 4 4 4 6 6 7 6 5 5 6 4 6 6 7 7 8 8 7 7 6 6 6 5 6 6 6 7 7 9 15 16 16 16 17 16 12 12 12 12 13 13 14 14 14 14 14 14 14 14 14 14 14 14 14 15 14 13 13 12 12 13
3 3 3 2 2 2 1 2 2 2 3 4 4 5 4 5 5 5 6 6 5 5 5 5 5 6 7 7 7 8 7 6 7 7 7 6 6 6 9 9 9 13 14 13 14 16 16 16 16 13 12 13 14 14 13 13 14 15 16 16 17 17 16 16 16 16 16 16 15 14 13 13 13 12
3 2 3 5 4 3 2 2 2 4 4 3 2 3 4 4 4 4 5 5 5 5 6 5 6 5 6 6 5 6 6 6 6 6 6 6 8 8 9 8 9 8 8 7 10 11 11 14 17 17 16 14 12 13 13 14 15 16 17 17 17 17 16 16 16 16 16 16 16 15 14 13 13 14
2 3 2 2 3 4 7 6 5 4 5 5 5 5 6 5 4 5 4 4 5 5 6 5 5 6 6 5 6 5 5 6 6 7 8 7 6 6 7 9 9 9 10 12 12 11 11 13 12 16 18 18 18 14 12 13 15 17 18 17 17 18 18 17 16 16 16 16 16 15 14 13 14 14
2 3 2 2 5 6 5 5 4 4 2 2 2 3 3 6 6 6 5 5 5 5 4 5 5 5 6 5 4 5 7 7 6 6 8 9 9 8 7 8 9 9 9 10 10 11 12 12 15 15 15 15 17 19 17 16 15 16 17 17 17 16 15 15 15 15 16 15 15 14 14 14 14 14
2 2 2 2 4 7 7 6 5 4 2 1 1 2 3 4 5 5 4 5 5 5 4 5 4 5 6 5 5 5 5 6 6 7 6 7 8 9 9 7 6 7 9 9 9 10 10 11 10 10 10 9 12 14 17 14 17 14 10 12 14 16 16 15 15 15 15 15 15 14 14 14 14 14
2 3 2 1 7 2 5 3 5 4 2 2 1 0 1 2 3 3 4 4 4 4 4 4 4 5 5 6 6 6 5 5 6 7 7 7 8 8 8 7 4 6 6 8 9 8 8 9 11 9 10 10 9 7 9 9 12 16 19 16 13 13 13 13 12 13 13 14 14 14 15 14 14 14
1 1 2 2 2 5 5 3 5 4 6 5 4 5 8 6 3 3 3 3 3 4 4 4 4 4 5 5 6 6 6 6 6 6 6 6 7 7 9 10 8 3 9 9 10 10 8 8 9 9 9 10 9 8 9 13 15 16 17 19 18 13 12 11 11 11 12 13 13 13 13 13 12 12
1 1 0 1 2 2 3 2 3 8 9 9 9 9 11 12 11 10 6 4 3 2 3 3 3 3 4 5 5 5 5 6 7 6 6 6 6 8 8 8 9 8 8 9 9 10 7 6 8 9 9 9 8 8 13 14 12 13 14 14 15 13 8 8 9 9 8 7 8 10 10 10 8 5
0 1 0 2 2 2 5 3 4 3 6 9 10 11 14 13 12 12 14 12 8 4 4 2 3 2 3 4 4 4 4 3 5 5 5 5 5 6 8 7 9 10 9 8 8 9 9 8 7 7 8 7 6 6 10 11 11 12 13 14 16 15 14 11 10 8 7 6 6 7 7 7 5 2
1 1 2 2 3 2 4 3 3 2 2 1 1 5 8 9 12 13 15 16 16 11 5 4 4 3 4 4 3 4 2 3 4 4 5 5 6 6 7 8 9 10 8 8 7 8 8 7 7 8 8 8 5 7 8 10 11 11 13 14 14 15 14 14 13 12 11 9 7 5 2 2 2 2
1 2 2 3 3 3 1 3 1 1 2 2 3 5 7 7 4 7 10 10 9 7 7 7 7 8 8 5 5 4 4 5 4 3 4 4 5 6 7 7 7 6 5 7 7 8 9 8 8 9 9 10 7 6 8 11 12 15 15 15 15 15 14 14 12 11 11 10 9 5 6 6 7 8
3 5 5 5 4 4 4 3 5 3 1 1 3 5 7 5 3 3 4 14 12 7 7 7 5 5 6 8 6 4 3 2 1 3 3 3 4 5 5 7 7 5 4 5 7 6 8 7 8 9 9 8 6 5 6 8 12 15 16 17 17 16 16 16 15 13 12 10 8 7 11 13 14 14
3 3 4 3 2 2 5 5 5 4 1 1 3 5 4 4 4 6 2 7 8 5 5 8 11 13 14 15 15 13 12 8 3 3 4 5 4 4 6 7 7 7 6 5 6 6 7 9 10 11 9 9 5 5 5 3 8 12 15 18 18 20 21 21 21 19 15 11 11 12 13 14 14 18
5 7 12 8 5 4 6 7 5 4 2 2 2 4 4 4 5 2 6 2 0 5 8 11 13 16 16 16 16 16 15 13 4 3 5 5 3 5 5 6 8 8 6 3 9 8 6 8 7 9 9 8 3 4 4 3 4 7 8 14 19 21 23 24 24 24 21 17 15 13 12 10 9 9
5 5 8 11 8 7 9 11 7 4 2 0 2 2 3 4 4 3 4 4 5 4 5 5 6 8 13 12 9 10 15 11 8 6 6 3 4 5 5 6 6 7 5 4 9 7 7 8 6 6 8 7 3 5 6 7 7 5 4 7 10 16 20 23 25 26 27 24 20 17 16 14 10 7
7 7 7 10 11 14 13 10 8 5 3 1 1 2 3 4 3 4 4 3 3 5 5 8 8 9 10 10 6 4 3 4 8 8 7 6 5 5 5 5 5 5 6 5 7 6 7 5 6 6 5 7 6 4 6 8 8 8 7 5 5 8 10 13 16 22 24 25 26 26 27 26 16 6
5 7 7 7 12 14 13 10 9 7 4 2 2 2 4 2 2 4 3 6 8 5 7 7 9 10 9 4 1 3 5 6 7 7 8 7 6 1 3 4 5 5 6 5 6 5 5 6 7 5 5 5 5 5 4 6 8 8 9 9 10 10 9 9 8 10 14 18 21 24 26 25 28 18
3 1 6 7 10 12 11 8 7 6 5 5 2 4 5 6 7 4 4 5 5 5 6 7 6 4 6 1 3 3 3 5 3 3 1 0 3 4 2 2 4 6 7 8 8 6 6 5 6 6 6 5 5 7 1 5 6 7 8 10 10 9 9 9 10 11 11 10 12 15 17 24 24 26
4 7 5 6 11 10 9 7 7 7 7 5 5 9 9 7 6 5 4 5 5 6 6 7 6 6 3 2 2 3 3 1 3 5 3 3 3 3 4 4 2 3 6 7 8 7 5 5 5 6 7 7 7 5 3 3 4 5 9 9 10 10 9 9 10 10 9 10 10 16 18 20 19 21
6 4 5 6 9 8 7 7 7 8 7 5 6 6 7 7 5 4 5 5 6 6 8 7 4 2 1 2 1 2 1 0 5 4 2 3 4 4 5 3 4 4 5 6 7 6 5 5 5 5 6 7 5 4 6 5 5 6 6 6 9 10 10 10 10 10 11 10 10 11 11 12 13 11
4 6 10 11 9 8 8 8 7 6 7 10 10 11 11 7 4 5 5 5 6 7 4 4 2 3 2 1 0 1 2 3 5 3 3 4 4 3 4 3 4 6 6 6 6 6 5 4 4 5 5 6 6 7 7 6 5 5 4 5 9 9 9 9 9 10 9 11 12 12 12 9 10 11
8 9 10 10 9 8 6 5 4 5 5 9 11 12 10 4 5 5 6 7 3 3 3 4 2 3 3 3 3 4 3 5 5 3 2 3 3 3 2 3 4 6 6 7 7 7 6 6 5 4 7 8 7 7 6 6 8 7 7 6 6 7 9 8 9 8 10 10 11 11 10 11 12 10
5 8 8 7 9 7 10 8 3 3 2 2 5 6 6 6 6 6 7 4 1 3 4 3 2 3 3 4 4 3 1 5 5 4 3 4 3 1 0 2 3 4 6 7 8 7 7 8 9 8 7 6 8 8 7 7 8 8 9 8 8 9 6 7 8 10 9 8 8 10 10 10 12 11
5 4 7 8 6 4 3 4 3 4 4 6 5 6 6 7 7 8 8 1 3 2 5 2 2 3 3 4 3 2 2 4 5 5 4 3 2 1 1 2 2 1 4 7 7 9 10 9 10 10 10 7 7 6 7 8 8 7 8 8 8 8 6 7 8 8 7 7 10 11 10 10 10 9
5 4 5 5 5 4 3 3 4 5 6 6 7 8 8 8 8 7 6 6 6 6 1 1 2 5 3 3 4 2 2 1 6 6 4 5 1 2 4 4 3 2 2 5 5 6 8 10 11 11 11 11 10 8 6 8 8 7 7 6 7 8 7 7 6 6 4 10 10 9 11 10 9 8
5 6 6 6 6 6 5 5 6 7 7 7 7 8 9 5 3 2 1 2 1 3 0 3 4 3 2 4 2 3 2 1 4 3 6 4 4 3 4 4 2 1 1 0 3 4 4 5 7 8 9 11 11 12 9 7 8 6 6 6 6 8 7 6 7 7 7 7 8 10 9 8 8 8
6 6 7 6 6 6 7 7 8 8 8 9 8 5 6 5 4 3 2 2 3 0 3 3 2 1 3 3 2 2 4 1 3 5 5 6 6 5 5 4 3 2 0 0 1 0 4 4 2 4 5 4 7 10 14 10 5 6 5 6 5 6 6 5 5 5 7 6 8 11 8 8 8 7
6 5 3 4 5 5 6 7 6 5 4 3 3 3 4 5 4 5 2 3 1 2 4 2 0 1 2 1 2 3 5 3 4 4 6 6 6 5 4 3 4 3 3 2 2 2 2 1 4 4 5 4 6 7 6 10 12 6 4 6 4 5 4 4 4 5 6 7 7 7 10 8 6 5
5 4 4 4 6 6 5 4 4 3 1 0 1 2 2 3 3 4 4 2 1 3 3 1 3 2 1 1 1 4 5 4 3 2 4 7 6 6 6 4 4 5 4 3 2 3 3 4 5 5 6 5 7 7 4 4 8 13 7 4 6 6 5 4 4 6 6 5 6 6 6 7 6 5
4 3 4 5 5 5 5 2 3 3 2 2 1 1 1 1 3 4 3 3 3 5 5 4 4 4 3 1 2 3 4 3 2 3 4 2 4 6 6 6 5 5 5 4 3 3 3 4 4 4 5 7 7 6 3 3 4 8 13 5 2 1 1 4 4 5 5 5 6 6 5 7 7 6
5 4 4 5 5 6 4 2 2 4 3 1 2 1 2 1 1 3 3 4 2 1 2 4 1 2 1 3 1 2 4 2 2 1 2 4 4 4 2 7 6 6 6 6 5 4 4 5 4 4 4 5 6 4 5 6 4 2 9 16 4 2 4 1 4 5 6 6 6 7 7 6 8 11
5 5 5 5 5 5 4 3 3 3 4 4 3 3 3 4 4 3 3 2 1 2 3 1 2 0 3 3 1 2 3 3 3 5 5 5 6 5 3 2 7 7 7 8 6 5 5 5 5 6 7 8 8 7 7 8 5 4 7 13 18 8 2 2 3 6 6 5 7 8 7 6 4 3
6 7 7 6 6 5 6 4 4 4 4 6 4 4 5 4 5 5 3 4 4 4 4 3 4 5 4 1 3 1 1 2 3 4 4 2 0 1 3 5 0 6 7 7 7 6 5 4 6 8 10 8 8 7 4 5 7 5 7 7 11 16 15 10 4 3 3 5 7 6 7 6 5 3
8 8 8 7 7 5 5 5 5 5 5 5 6 5 4 3 2 7 5 3 1 1 2 2 0 1 2 2 3 1 0 2 2 3 2 3 1 0 3 2 4 4 4 8 7 6 6 7 8 8 7 7 4 2 7 7 6 4 3 3 4 10 14 16 16 11 5 0 5 5 3 3 3 5
9 8 8 7 7 6 5 6 6 6 6 6 6 5 5 5 5 5 4 4 3 3 4 3 0 2 2 1 1 1 2 2 1 1 0 3 1 1 2 5 2 3 5 5 7 7 8 8 7 7 6 4 3 2 7 7 6 5 3 3 2 1 4 11 13 16 18 18 11 3 1 3 5 3
9 8 8 7 7 6 5 6 6 5 5 5 5 6 6 6 5 6 4 4 5 6 4 3 2 3 1 0 0 1 1 4 1 1 2 2 3 4 5 1 2 5 5 6 7 5 6 6 4 3 3 3 3 6 8 7 6 6 6 5 3 2 4 3 4 8 12 16 17 16 20 18 13 11
5 8 8 6 5 6 6 5 6 6 4 5 5 5 5 6 5 5 6 5 5 4 4 3 2 4 2 2 3 5 1 4 2 2 1 2 3 2 2 3 5 5 4 4 6 5 5 4 5 5 6 5 4 5 6 6 6 6 5 5 5 4 4 3 5 8 8 7 12 16 15 15 15 13
Wind_Direction
289 316 328 317 305 280 277 290 322 20 28 7 346 342 343 359 319 307 311 317 333 334 354 335 325 345 4 359 353 345 339 345 349 350 352 344 335 320 305 252 227 223 234 241 253 266 273 274 274 272 270 272 273 274 272 268 263 260 260 263 266 266 264 261 257 249 245 243 242 241 242 242 243 242
346 328 324 325 321 333 338 344 355 7 18 6 331 322 320 304 271 272 284 291 320 314 330 327 331 342 340 346 340 334 332 335 339 336 334 322 312 308 307 293 252 247 245 252 258 257 259 265 270 272 272 273 274 273 270 266 266 268 272 277 281 283 278 271 265 260 255 251 248 245 243 243 244 245
329 344 348 349 334 329 327 331 338 332 310 259 236 234 229 259 303 317 309 297 281 348 313 324 328 321 320 322 331 329 325 322 321 322 319 311 315 322 313 304 279 251 248 248 250 255 261 263 264 268 269 270 270 270 266 258 253 255 255 259 263 267 269 268 262 255 254 255 255 252 248 247 246 245
342 316 287 268 319 325 324 316 357 348 317 322 319 322 319 315 312 315 301 287 288 277 270 277 286 297 309 326 307 304 307 317 323 324 329 329 335 328 323 316 309 304 288 274 268 264 262 262 264 266 268 266 265 264 262 259 255 249 245 245 247 253 259 262 259 258 256 255 253 253 253 250 249 249
293 301 329 317 315 331 316 314 320 307 286 287 333 335 327 318 302 296 288 287 290 284 270 288 297 313 330 318 339 335 334 334 330 329 319 326 316 304 286 277 267 267 270 271 269 266 265 266 272 279 280 276 274 269 266 264 260 255 249 246 248 252 254 257 258 256 255 255 254 253 252 252 252 251
284 11 344 339 347 329 316 345 322 337 357 336 324 303 298 275 288 279 289 298 314 309 317 328 348 336 344 324 340 327 329 322 319 314 313 300 300 307 314 318 315 305 309 323 314 278 270 263 257 254 254 257 257 260 263 265 263 258 257 257 255 253 253 255 258 257 256 256 256 257 257 256 253 252
350 320 350 342 354 359 353 350 331 341 335 345 328 327 329 336 340 334 344 341 328 329 327 343 332 342 345 337 325 317 314 318 317 312 319 332 329 322 322 317 318 309 325 338 336 325 306 287 278 266 256 252 251 253 254 253 252 250 248 248 250 250 250 251 252 255 251 248 251 251 252 255 254 251
342 334 314 265 244 293 340 348 351 344 335 328 318 310 322 333 343 347 354 350 345 336 327 329 323 332 330 315 309 307 304 299 305 306 303 299 302 302 290 294 299 338 343 337 335 341 341 334 304 276 276 270 262 255 250 249 250 251 253 255 255 255 256 254 252 252 254 253 252 251 252 252 252 251
299 333 321 329 358 342 323 320 298 307 320 325 339 339 342 336 350 347 342 335 331 320 313 315 321 315 301 301 297 296 309 325 322 323 314 309 315 337 353 345 337 328 332 335 334 336 332 322 323 313 283 271 268 264 261 258 254 252 251 249 249 250 251 252 251 249 248 248 249 249 249 250 251 251
324 343 346 330 349 346 329 316 346 355 344 341 316 336 346 340 331 330 325 321 321 321 314 308 298 289 297 297 300 319 326 320 312 300 309 346 358 352 340 338 331 327 325 335 330 322 320 322 319 322 331 327 304 284 277 272 268 265 262 262 261 260 257 253 251 248 245 245 245 246 248 250 250 250
331 334 310 324 297 20 48 56 50 42 38 20 17 7 354 339 336 325 311 312 310 309 307 306 310 306 297 306 304 297 301 309 326 336 342 338 339 332 339 334 336 332 328 321 313 316 320 328 339 346 345 338 334 326 301 279 273 270 266 263 261 257 252 249 248 247 245 243 244 248 250 251 250 247
266 243 240 268 71 77 60 44 41 47 43 29 10 11 351 334 330 328 324 317 307 309 312 315 314 307 299 288 288 326 350 349 341 354 341 326 334 336 343 331 327 327 321 330 335 337 339 341 336 334 331 329 324 324 323 313 301 285 269 262 264 268 269 265 257 252 250 250 249 249 250 252 251 248
299 328 332 352 99 80 101 96 88 94 95 33 7 1 7 317 311 309 312 304 304 299 307 305 303 302 307 317 335 346 347 343 335 335 338 330 331 331 320 318 312 319 332 329 334 336 337 329 328 327 317 316 317 313 314 310 304 305 309 290 274 267 266 260 256 250 246 244 248 251 251 249 248 248
338 329 318 302 271 357 13 77 128 141 152 162 135 33 4 309 294 283 279 286 285 290 293 297 305 307 314 334 335 332 334 337 341 341 345 328 324 313 310 305 320 331 329 334 322 323 328 325 319 313 310 310 312 304 300 302 299 305 308 303 292 287 273 263 253 244 242 244 244 245 247 247 245 244
248 247 304 13 348 327 309 284 164 205 208 225 232 251 255 253 264 300 304 309 317 303 302 303 306 316 322 320 329 326 329 332 345 337 327 318 319 328 332 324 319 352 357 337 328 318 319 312 308 310 300 297 290 296 278 294 321 330 326 319 310 283 269 265 248 234 226 230 239 242 244 246 246 246
216 206 6 6 329 253 249 285 176 213 221 217 223 234 245 245 243 246 257 276 289 270 277 286 293 302 297 317 321 314 327 339 335 327 328 322 333 329 319 315 313 326 343 325 311 305 305 304 294 289 286 278 274 298 20 13 5 357 356 351 339 332 321 325 326 318 301 276 260 255 252 252 257 264
135 62 3 257 250 292 285 280 258 247 206 211 217 225 242 247 232 229 239 238 238 268 262 268 281 277 299 291 299 308 310 343 310 316 311 317 312 309 304 305 309 308 308 296 292 300 305 292 285 288 292 291 293 34 27 16 21 22 21 25 21 20 20 18 8 353 337 316 297 290 295 307 314 332
22 322 253 254 234 208 227 221 260 260 316 37 208 233 245 248 248 222 219 233 237 235 255 278 274 265 256 256 251 262 253 256 267 279 279 279 289 297 300 299 286 284 286 285 294 290 297 307 310 307 306 307 336 68 30 26 34 37 36 35 33 31 28 25 23 15 5 349 327 311 326 36 69 143
303 275 263 255 266 255 53 56 34 303 357 358 297 286 282 270 222 187 204 215 219 216 221 232 248 256 262 255 245 240 233 234 238 236 256 269 275 276 273 268 268 283 291 309 321 315 319 319 321 322 319 319 344 76 43 31 47 46 47 44 40 39 36 31 29 23 16 9 0 25 69 84 101 89
179 210 211 214 206 236 124 103 69 57 48 258 277 280 275 283 303 288 205 196 198 201 204 213 231 258 267 271 263 247 245 261 292 291 298 296 286 291 303 307 310 305 317 332 325 322 320 331 333 318 315 320 336 75 51 36 52 53 50 49 47 48 45 40 35 30 28 27 22 78 99 101 95 85
211 206 219 224 192 211 125 145 125 93 311 275 271 274 288 297 306 281 88 118 156 196 217 242 255 256 256 258 260 257 247 241 270 345 318 280 286 303 317 321 316 318 332 341 12 346 328 343 335 324 330 326 339 72 64 58 48 47 47 49 50 50 48 43 37 33 30 43 65 88 92 93 96 94
196 212 218 213 199 162 132 150 156 178 229 264 292 289 306 306 292 348 37 355 192 232 243 247 249 260 262 253 252 252 250 244 208 213 243 269 310 307 312 314 313 312 323 346 27 345 321 324 333 325 322 313 30 64 62 34 28 28 45 59 59 57 54 50 45 42 41 53 78 88 84 68 67 76
188 209 224 203 202 140 155 162 165 182 195 210 283 308 297 289 281 53 341 348 336 332 323 295 269 269 268 263 243 243 240 223 182 203 225 268 274 288 292 294 307 311 320 15 25 338 323 323 326 342 327 332 355 54 41 26 20 8 22 56 59 58 58 54 50 48 49 51 48 42 30 23 35 57
194 206 187 181 138 137 149 159 157 141 122 169 277 286 277 270 289 17 328 314 310 297 283 282 276 270 281 274 231 226 216 182 177 196 211 225 241 250 285 311 312 300 302 334 22 340 306 300 312 329 305 311 326 23 36 38 16 14 9 27 54 49 53 51 53 52 50 51 49 49 50 40 29 58
192 197 182 171 142 142 147 152 152 141 150 185 235 250 252 290 339 316 310 307 309 287 275 271 270 263 255 270 47 166 160 155 175 186 204 212 221 292 345 326 325 308 308 320 0 322 299 307 301 308 305 305 294 319 63 42 34 19 19 33 40 30 32 38 40 42 43 44 46 48 50 51 43 35
227 230 105 130 140 137 141 137 146 156 172 194 239 246 278 320 326 330 296 292 282 268 269 267 271 305 309 332 59 18 70 108 127 140 141 111 72 77 70 7 332 324 315 324 328 297 285 291 300 309 307 314 312 305 43 59 38 30 27 38 38 33 37 47 48 47 43 42 45 43 47 51 49 44
18 63 76 100 130 134 137 148 163 180 195 205 234 249 269 280 294 295 281 270 276 272 274 275 280 270 296 5 50 46 18 37 106 94 91 94 109 96 67 45 358 328 312 321 332 320 293 288 302 299 303 303 307 314 50 76 54 32 46 36 41 39 34 43 48 45 40 42 42 44 46 38 41 49
66 97 107 125 128 137 157 174 185 196 197 224 244 254 254 267 280 271 278 260 254 262 260 265 271 309 333 319 52 73 281 230 96 94 95 89 82 77 103 104 42 356 347 344 341 329 317 300 284 293 304 311 325 8 97 60 56 45 59 46 51 46 41 44 49 47 45 44 48 43 45 46 31 26
78 101 125 139 156 162 182 192 199 211 222 232 246 255 261 264 267 254 244 255 250 253 273 283 337 335 300 340 250 135 246 108 101 111 95 91 93 79 112 119 56 22 19 358 353 347 346 339 339 317 9 23 53 46 51 55 45 41 32 49 50 39 45 46 51 54 50 51 52 44 42 40 45 39
125 128 152 165 176 185 187 188 204 217 215 219 230 242 246 243 242 247 246 246 260 302 300 317 324 291 320 333 330 290 244 125 103 116 98 88 81 59 85 128 92 46 33 25 20 7 17 8 6 325 55 44 44 60 49 65 55 37 29 56 104 78 50 51 53 54 57 57 52 56 50 44 40 39
217 178 179 190 198 205 187 202 242 282 279 228 230 237 234 232 235 239 247 243 283 259 264 271 309 328 315 310 282 276 285 122 124 118 108 97 101 75 201 116 96 97 47 45 35 30 42 44 38 28 55 53 60 51 55 65 66 56 46 39 46 71 50 53 57 61 66 64 67 60 52 47 47 39
222 219 191 198 190 195 175 203 208 224 228 232 232 233 225 224 225 235 247 244 249 265 257 275 286 281 276 270 282 280 300 126 127 119 114 98 119 167 121 82 38 43 108 57 49 47 55 54 58 55 58 47 53 51 67 60 62 61 60 50 57 57 48 60 67 64 57 76 68 58 49 45 44 43
199 213 186 188 199 199 197 202 216 212 216 222 224 227 229 215 212 214 210 204 224 226 195 278 273 271 276 283 282 256 280 110 124 126 138 128 140 162 113 86 72 12 22 110 95 72 71 73 68 67 62 56 48 35 52 74 59 59 63 56 63 64 55 42 56 66 63 72 75 72 63 51 44 37
201 202 205 199 200 198 196 208 213 214 211 215 216 221 219 206 233 221 116 267 232 97 348 262 260 270 288 279 282 324 285 89 124 156 146 119 103 76 75 84 77 354 318 50 148 161 117 102 101 84 76 70 62 52 38 52 74 65 59 66 68 78 69 74 66 63 60 62 86 82 68 60 50 41
219 217 205 208 209 203 203 207 214 217 208 203 210 187 162 201 193 133 209 217 94 58 259 254 259 265 280 290 319 314 301 269 162 182 148 121 112 100 120 140 141 169 210 120 46 203 184 174 151 122 97 78 72 61 53 46 31 58 75 62 72 77 85 75 77 68 75 74 73 84 84 70 54 40
217 226 223 235 233 218 214 211 216 220 198 176 179 210 177 190 159 169 155 89 92 253 262 242 50 321 290 305 344 310 291 313 297 188 140 133 127 142 146 136 131 126 107 83 48 9 343 278 167 107 91 66 71 66 36 46 50 5 46 86 65 79 79 85 92 99 83 77 61 79 85 76 68 46
206 219 224 240 251 245 224 207 202 191 133 230 195 190 171 175 147 121 113 147 196 253 261 299 244 207 271 273 264 262 267 264 301 304 157 139 143 152 137 124 104 106 95 65 63 23 29 27 72 107 108 92 84 85 49 330 31 37 5 58 94 97 107 100 92 75 67 75 86 83 96 108 100 91
203 209 233 242 252 260 252 190 151 140 161 198 228 198 158 104 101 111 139 167 211 220 217 213 231 183 230 200 246 303 317 324 323 327 344 105 142 161 148 129 115 93 86 72 57 56 47 54 81 109 116 114 116 108 107 6 7 6 13 352 66 1 128 108 87 100 93 82 88 87 95 95 100 104
199 212 225 241 243 244 238 187 161 157 164 174 194 192 149 161 142 135 162 226 220 207 233 251 178 90 339 268 96 288 270 295 304 297 65 51 30 11 77 117 121 121 105 82 62 66 62 76 70 67 83 102 105 105 120 109 60 324 19 28 8 40 20 11 111 96 93 84 68 65 58 68 96 116
214 213 224 227 235 224 216 182 177 173 169 189 197 185 190 185 179 177 196 186 172 226 263 262 79 359 261 237 193 292 351 339 314 73 53 36 18 22 19 94 135 137 130 116 103 79 75 85 113 129 123 116 122 126 124 112 125 65 41 29 29 38 351 350 59 108 109 111 116 114 113 115 124 212
212 220 233 237 241 213 193 187 179 185 182 176 197 200 197 185 186 189 181 166 173 179 224 228 183 205 247 195 115 81 296 319 343 71 97 100 73 51 351 341 339 149 128 125 127 129 135 134 108 110 118 125 126 136 104 80 59 44 49 31 29 44 46 47 56 69 105 153 150 141 152 170 172 183
205 213 220 227 236 226 185 185 186 184 188 177 185 196 186 190 133 119 120 109 100 273 280 273 181 95 5 359 116 152 43 356 359 15 340 142 135 359 351 7 77 74 111 135 133 139 129 120 134 141 136 137 141 114 95 106 116 111 108 76 51 50 56 59 58 58 66 61 156 157 163 177 146 93
198 205 211 218 225 223 190 179 187 182 183 181 179 173 166 188 150 169 157 160 186 198 229 238 161 137 182 240 103 129 144 173 275 188 354 26 107 107 46 16 12 95 86 92 125 138 134 149 162 168 166 143 195 165 114 123 132 142 146 145 133 106 70 62 60 58 54 49 48 74 187 160 136 108
196 199 205 210 216 209 198 174 178 183 174 177 175 179 168 186 171 172 174 181 195 197 183 180 189 157 126 304 135 192 198 171 190 61 88 65 21 78 87 80 41 68 63 57 61 83 115 136 182 198 152 144 140 114 134 138 146 143 148 156 176 137 82 63 48 54 58 47 40 53 65 71 82 100
227 199 200 202 202 191 187 175 167 173 168 174 176 185 175 167 174 169 183 176 170 156 154 180 192 138 160 206 181 217 172 57 63 147 138 148 103 72 79 97 76 77 83 88 90 83 96 104 91 74 71 58 59 77 83 95 114 129 137 132 124 104 99 83 61 56 52 47 16 30 50 65 74 79